Time,TemperatureF,DewpointF,PressureIn,WindDirection,WindDirectionDegrees,WindSpeedMPH,WindSpeedGustMPH,Humidity,HourlyPrecipIn,Conditions,Clouds,dailyrainin,SoftwareType,DateUTC
2013-03-30 00:00:00,64.8,52.3,30.25,SE,126,0.0,3.0,64,0.00,,,0.00,meteohub,2013-03-30 04:00:00,
2013-03-30 00:02:00,64.8,51.8,30.25,ESE,111,1.0,2.0,63,0.00,,,0.00,meteohub,2013-03-30 04:02:00,
2013-03-30 00:07:00,64.8,52.3,30.25,SE,146,0.0,3.0,64,0.00,,,0.00,meteohub,2013-03-30 04:07:00,
2013-03-30 00:12:00,64.8,52.3,30.25,East,96,0.0,3.0,64,0.00,,,0.00,meteohub,2013-03-30 04:12:00,
2013-03-30 00:17:00,64.8,52.3,30.25,ENE,78,0.0,3.0,64,0.00,,,0.00,meteohub,2013-03-30 04:17:00,
2013-03-30 00:22:00,64.6,52.2,30.25,SE,135,0.0,3.0,64,0.00,,,0.00,meteohub,2013-03-30 04:22:00,
2013-03-30 00:27:00,64.6,52.2,30.25,ENE,76,0.0,5.0,64,0.00,,,0.00,meteohub,2013-03-30 04:27:00,
2013-03-30 00:32:00,64.6,51.6,30.25,NE,55,0.0,5.0,63,0.00,,,0.00,meteohub,2013-03-30 04:32:00,
2013-03-30 00:37:00,64.6,52.2,30.24,NE,55,0.0,5.0,64,0.00,,,0.00,meteohub,2013-03-30 04:37:00,
2013-03-30 00:42:00,64.2,51.8,30.24,NE,55,0.0,2.0,64,0.00,,,0.00,meteohub,2013-03-30 04:42:00,
2013-03-30 00:47:00,64.0,52.0,30.24,ENE,67,0.0,3.0,65,0.00,,,0.00,meteohub,2013-03-30 04:47:00,
2013-03-30 00:52:00,64.2,51.8,30.24,East,97,0.0,3.0,64,0.00,,,0.00,meteohub,2013-03-30 04:52:00,
2013-03-30 00:57:00,64.4,52.0,30.24,ENE,71,0.0,4.0,64,0.00,,,0.00,meteohub,2013-03-30 04:57:00,
2013-03-30 01:02:00,64.4,52.0,30.24,ENE,71,0.0,4.0,64,0.00,,,0.00,meteohub,2013-03-30 05:02:00,
2013-03-30 01:07:00,64.2,51.8,30.24,SE,132,0.0,4.0,64,0.00,,,0.00,meteohub,2013-03-30 05:07:00,
2013-03-30 01:12:00,64.2,51.8,30.24,SE,142,0.0,5.0,64,0.00,,,0.00,meteohub,2013-03-30 05:12:00,
2013-03-30 01:17:00,64.2,51.8,30.24,East,92,0.0,5.0,64,0.00,,,0.00,meteohub,2013-03-30 05:17:00,
2013-03-30 01:22:00,64.0,52.0,30.24,East,86,0.0,5.0,65,0.00,,,0.00,meteohub,2013-03-30 05:22:00,
2013-03-30 01:27:00,64.0,52.0,30.24,ESE,109,0.0,1.0,65,0.00,,,0.00,meteohub,2013-03-30 05:27:00,
2013-03-30 01:33:00,63.9,51.8,30.24,SE,138,0.0,1.0,65,0.00,,,0.00,meteohub,2013-03-30 05:33:00,
2013-03-30 01:38:00,63.7,52.2,30.23,East,92,0.0,1.0,66,0.00,,,0.00,meteohub,2013-03-30 05:38:00,
2013-03-30 01:43:00,63.7,51.6,30.23,NE,40,0.0,2.0,65,0.00,,,0.00,meteohub,2013-03-30 05:43:00,
2013-03-30 01:48:00,63.7,51.6,30.23,SSE,162,0.0,2.0,65,0.00,,,0.00,meteohub,2013-03-30 05:48:00,
2013-03-30 01:53:00,63.9,51.8,30.23,ENE,69,0.0,3.0,65,0.00,,,0.00,meteohub,2013-03-30 05:53:00,
2013-03-30 01:58:00,63.9,51.8,30.23,East,98,0.0,3.0,65,0.00,,,0.00,meteohub,2013-03-30 05:58:00,
2013-03-30 02:03:00,63.9,51.8,30.22,NE,53,0.0,3.0,65,0.00,,,0.00,meteohub,2013-03-30 06:03:00,
2013-03-30 02:08:00,63.9,51.4,30.22,East,84,0.0,3.0,64,0.00,,,0.00,meteohub,2013-03-30 06:08:00,
2013-03-30 02:13:00,63.9,51.4,30.22,ESE,122,0.0,3.0,64,0.00,,,0.00,meteohub,2013-03-30 06:13:00,
2013-03-30 02:18:00,63.9,52.3,30.22,SE,128,0.0,3.0,66,0.00,,,0.00,meteohub,2013-03-30 06:18:00,
2013-03-30 02:23:00,63.7,52.2,30.22,SE,127,0.0,3.0,66,0.00,,,0.00,meteohub,2013-03-30 06:23:00,
2013-03-30 02:28:00,63.7,52.5,30.22,NE,40,0.0,3.0,67,0.00,,,0.00,meteohub,2013-03-30 06:28:00,
2013-03-30 02:33:00,63.5,52.3,30.22,NNE,30,0.0,2.0,67,0.00,,,0.00,meteohub,2013-03-30 06:33:00,
2013-03-30 02:38:00,63.5,52.3,30.22,NNE,17,0.0,3.0,67,0.00,,,0.00,meteohub,2013-03-30 06:38:00,
2013-03-30 02:43:00,63.7,52.9,30.22,ESE,113,0.0,3.0,68,0.00,,,0.00,meteohub,2013-03-30 06:43:00,
2013-03-30 02:48:00,63.9,53.1,30.22,SSE,157,0.0,3.0,68,0.00,,,0.00,meteohub,2013-03-30 06:48:00,
2013-03-30 02:53:00,63.9,53.1,30.22,NE,42,0.0,3.0,68,0.00,,,0.00,meteohub,2013-03-30 06:53:00,
2013-03-30 02:58:00,63.9,53.1,30.22,NE,45,0.0,2.0,68,0.00,,,0.00,meteohub,2013-03-30 06:58:00,
2013-03-30 03:03:00,63.9,53.1,30.22,NE,53,0.0,2.0,68,0.00,,,0.00,meteohub,2013-03-30 07:03:00,
2013-03-30 03:08:00,63.7,52.9,30.22,NE,56,0.0,2.0,68,0.00,,,0.00,meteohub,2013-03-30 07:08:00,
2013-03-30 03:13:00,63.9,53.1,30.22,NE,46,0.0,3.0,68,0.00,,,0.00,meteohub,2013-03-30 07:13:00,
2013-03-30 03:18:00,63.9,53.1,30.22,NE,46,0.0,3.0,68,0.00,,,0.00,meteohub,2013-03-30 07:18:00,
2013-03-30 03:23:00,63.7,52.9,30.22,West,271,0.0,3.0,68,0.00,,,0.00,meteohub,2013-03-30 07:23:00,
2013-03-30 03:28:00,63.3,53.1,30.22,West,271,0.0,2.0,69,0.00,,,0.00,meteohub,2013-03-30 07:28:00,
2013-03-30 03:33:00,63.1,52.9,30.22,West,273,0.0,2.0,69,0.00,,,0.00,meteohub,2013-03-30 07:33:00,
2013-03-30 03:38:00,63.1,52.9,30.22,ESE,111,2.0,2.0,69,0.00,,,0.00,meteohub,2013-03-30 07:38:00,
2013-03-30 03:43:00,63.1,52.9,30.22,SE,125,0.0,2.0,69,0.00,,,0.00,meteohub,2013-03-30 07:43:00,
2013-03-30 03:48:00,63.1,52.9,30.22,ESE,120,0.0,2.0,69,0.00,,,0.00,meteohub,2013-03-30 07:48:00,
2013-03-30 03:53:00,63.1,52.9,30.22,NE,39,0.0,2.0,69,0.00,,,0.00,meteohub,2013-03-30 07:53:00,
2013-03-30 03:58:00,63.1,52.9,30.22,NE,49,0.0,1.0,69,0.00,,,0.00,meteohub,2013-03-30 07:58:00,
2013-03-30 04:03:00,63.0,52.2,30.22,ESE,120,0.0,1.0,68,0.00,,,0.00,meteohub,2013-03-30 08:03:00,
2013-03-30 04:08:00,62.8,52.5,30.22,ESE,120,0.0,1.0,69,0.00,,,0.00,meteohub,2013-03-30 08:08:00,
2013-03-30 04:13:00,62.6,52.7,30.22,ESE,120,0.0,1.0,70,0.00,,,0.00,meteohub,2013-03-30 08:13:00,
2013-03-30 04:18:00,62.4,52.5,30.21,ESE,119,0.0,0.0,70,0.00,,,0.00,meteohub,2013-03-30 08:18:00,
2013-03-30 04:23:00,62.2,52.7,30.21,ESE,119,0.0,0.0,71,0.00,,,0.00,meteohub,2013-03-30 08:23:00,
2013-03-30 04:28:00,61.9,52.3,30.21,NNE,29,0.0,0.0,71,0.00,,,0.00,meteohub,2013-03-30 08:28:00,
2013-03-30 04:33:00,61.9,52.3,30.21,NNE,29,0.0,2.0,71,0.00,,,0.00,meteohub,2013-03-30 08:33:00,
2013-03-30 04:38:00,61.5,52.3,30.21,NE,37,0.0,2.0,72,0.00,,,0.00,meteohub,2013-03-30 08:38:00,
2013-03-30 04:43:00,61.5,52.3,30.21,NE,37,0.0,2.0,72,0.00,,,0.00,meteohub,2013-03-30 08:43:00,
2013-03-30 04:48:00,61.3,52.2,30.21,South,173,0.0,0.0,72,0.00,,,0.00,meteohub,2013-03-30 08:48:00,
2013-03-30 04:53:00,61.3,52.2,30.21,South,173,0.0,1.0,72,0.00,,,0.00,meteohub,2013-03-30 08:53:00,
2013-03-30 04:58:00,61.2,52.0,30.21,South,173,0.0,1.0,72,0.00,,,0.00,meteohub,2013-03-30 08:58:00,
2013-03-30 05:03:00,61.0,52.3,30.21,South,173,0.0,0.0,73,0.00,,,0.00,meteohub,2013-03-30 09:03:00,
2013-03-30 05:08:00,61.0,52.7,30.21,East,90,0.0,0.0,74,0.00,,,0.00,meteohub,2013-03-30 09:08:00,
2013-03-30 05:13:00,61.0,53.1,30.21,East,90,0.0,2.0,75,0.00,,,0.00,meteohub,2013-03-30 09:13:00,
2013-03-30 05:18:00,61.0,53.1,30.21,East,85,0.0,2.0,75,0.00,,,0.00,meteohub,2013-03-30 09:18:00,
2013-03-30 05:23:00,61.0,53.4,30.21,ENE,67,4.0,4.0,76,0.00,,,0.00,meteohub,2013-03-30 09:23:00,
2013-03-30 05:28:00,61.3,53.1,30.21,NE,56,0.0,4.0,74,0.00,,,0.00,meteohub,2013-03-30 09:28:00,
2013-03-30 05:33:00,61.3,53.1,30.21,ENE,58,0.0,4.0,74,0.00,,,0.00,meteohub,2013-03-30 09:33:00,
2013-03-30 05:34:00,61.3,53.1,30.21,ENE,58,0.0,4.0,74,0.00,,,0.00,meteohub,2013-03-30 09:34:00,
2013-03-30 05:39:00,61.3,53.1,30.21,ENE,58,0.0,4.0,74,0.00,,,0.00,meteohub,2013-03-30 09:39:00,
2013-03-30 05:44:00,61.2,52.9,30.21,ENE,78,0.0,1.0,74,0.00,,,0.00,meteohub,2013-03-30 09:44:00,
2013-03-30 05:49:00,61.2,52.0,30.22,ENE,78,0.0,1.0,72,0.00,,,0.00,meteohub,2013-03-30 09:49:00,
2013-03-30 05:54:00,61.0,52.3,30.22,ENE,78,0.0,1.0,73,0.00,,,0.00,meteohub,2013-03-30 09:54:00,
2013-03-30 05:59:00,60.8,52.9,30.22,ENE,78,0.0,1.0,75,0.00,,,0.00,meteohub,2013-03-30 09:59:00,
2013-03-30 06:04:00,60.6,52.7,30.22,ENE,78,0.0,1.0,75,0.00,,,0.00,meteohub,2013-03-30 10:04:00,
2013-03-30 06:09:00,60.4,52.5,30.22,ENE,78,0.0,0.0,75,0.00,,,0.00,meteohub,2013-03-30 10:09:00,
2013-03-30 06:14:00,60.4,52.5,30.22,SE,128,0.0,0.0,75,0.00,,,0.00,meteohub,2013-03-30 10:14:00,
2013-03-30 06:19:00,60.4,52.9,30.22,SE,128,0.0,2.0,76,0.00,,,0.00,meteohub,2013-03-30 10:19:00,
2013-03-30 06:24:00,60.4,52.5,30.22,SE,128,0.0,2.0,75,0.00,,,0.00,meteohub,2013-03-30 10:24:00,
2013-03-30 06:29:00,60.4,52.5,30.22,SE,128,0.0,2.0,75,0.00,,,0.00,meteohub,2013-03-30 10:29:00,
2013-03-30 06:34:00,60.4,52.9,30.22,SE,128,0.0,0.0,76,0.00,,,0.00,meteohub,2013-03-30 10:34:00,
2013-03-30 06:39:00,60.4,52.5,30.22,SE,128,0.0,0.0,75,0.00,,,0.00,meteohub,2013-03-30 10:39:00,
2013-03-30 06:44:00,60.3,52.7,30.22,SE,128,0.0,0.0,76,0.00,,,0.00,meteohub,2013-03-30 10:44:00,
2013-03-30 06:49:00,60.1,52.9,30.22,SE,128,0.0,0.0,77,0.00,,,0.00,meteohub,2013-03-30 10:49:00,
2013-03-30 06:54:00,60.3,54.7,30.22,SE,128,0.0,0.0,82,0.00,,,0.00,meteohub,2013-03-30 10:54:00,
2013-03-30 06:59:00,60.3,53.8,30.22,SE,128,0.0,0.0,79,0.00,,,0.00,meteohub,2013-03-30 10:59:00,
2013-03-30 07:04:00,60.1,53.2,30.22,SE,128,0.0,0.0,78,0.00,,,0.00,meteohub,2013-03-30 11:04:00,
2013-03-30 07:09:00,59.7,52.5,30.22,SE,128,0.0,0.0,77,0.00,,,0.00,meteohub,2013-03-30 11:09:00,
2013-03-30 07:14:00,59.7,52.9,30.22,SE,128,0.0,1.0,78,0.00,,,0.00,meteohub,2013-03-30 11:14:00,
2013-03-30 07:19:00,59.5,52.7,30.23,ESE,121,0.0,1.0,78,0.00,,,0.00,meteohub,2013-03-30 11:19:00,
2013-03-30 07:24:00,59.7,52.2,30.23,NE,35,0.0,2.0,76,0.00,,,0.00,meteohub,2013-03-30 11:24:00,
2013-03-30 07:29:00,59.7,52.2,30.24,NE,35,0.0,2.0,76,0.00,,,0.00,meteohub,2013-03-30 11:29:00,
2013-03-30 07:34:00,60.1,52.9,30.24,NE,40,0.0,2.0,77,0.00,,,0.00,meteohub,2013-03-30 11:34:00,
2013-03-30 07:39:00,60.1,52.5,30.24,NE,40,0.0,0.0,76,0.00,,,0.00,meteohub,2013-03-30 11:39:00,
2013-03-30 07:45:00,60.4,52.5,30.24,NE,40,0.0,0.0,75,0.00,,,0.00,meteohub,2013-03-30 11:45:00,
2013-03-30 07:50:00,60.6,52.3,30.24,NE,41,0.0,0.0,74,0.00,,,0.00,meteohub,2013-03-30 11:50:00,
2013-03-30 07:55:00,61.0,52.3,30.25,NE,41,0.0,1.0,73,0.00,,,0.00,meteohub,2013-03-30 11:55:00,
2013-03-30 08:00:00,61.3,53.1,30.25,NE,41,0.0,1.0,74,0.00,,,0.00,meteohub,2013-03-30 12:00:00,
2013-03-30 08:05:00,61.5,52.7,30.25,NE,41,0.0,1.0,73,0.00,,,0.00,meteohub,2013-03-30 12:05:00,
2013-03-30 08:10:00,61.7,52.9,30.25,NE,41,0.0,0.0,73,0.00,,,0.00,meteohub,2013-03-30 12:10:00,
2013-03-30 08:15:00,61.9,53.1,30.26,NE,41,0.0,0.0,73,0.00,,,0.00,meteohub,2013-03-30 12:15:00,
2013-03-30 08:20:00,62.1,53.2,30.26,NE,41,0.0,0.0,73,0.00,,,0.00,meteohub,2013-03-30 12:20:00,
2013-03-30 08:25:00,62.4,53.6,30.26,NE,41,0.0,0.0,73,0.00,,,0.00,meteohub,2013-03-30 12:25:00,
2013-03-30 08:30:00,63.0,53.4,30.26,North,5,0.0,0.0,71,0.00,,,0.00,meteohub,2013-03-30 12:30:00,
2013-03-30 08:35:00,63.7,52.5,30.26,East,90,0.0,3.0,67,0.00,,,0.00,meteohub,2013-03-30 12:35:00,
2013-03-30 08:40:00,64.6,52.9,30.27,East,88,0.0,3.0,66,0.00,,,0.00,meteohub,2013-03-30 12:40:00,
2013-03-30 08:45:00,65.8,52.5,30.27,SSE,157,2.0,3.0,62,0.00,,,0.00,meteohub,2013-03-30 12:45:00,
2013-03-30 08:50:00,66.9,53.1,30.26,NE,54,0.0,3.0,61,0.00,,,0.00,meteohub,2013-03-30 12:50:00,
2013-03-30 08:55:00,67.8,53.4,30.26,ENE,63,1.0,3.0,60,0.00,,,0.00,meteohub,2013-03-30 12:55:00,
2013-03-30 09:00:00,68.7,52.9,30.26,East,94,0.0,3.0,57,0.00,,,0.00,meteohub,2013-03-30 13:00:00,
2013-03-30 09:05:00,69.3,53.4,30.26,SE,144,3.0,3.0,57,0.00,,,0.00,meteohub,2013-03-30 13:05:00,
2013-03-30 09:10:00,69.6,52.7,30.27,SSE,155,0.0,3.0,55,0.00,,,0.00,meteohub,2013-03-30 13:10:00,
2013-03-30 09:15:00,70.2,52.2,30.27,SSE,147,0.0,3.0,53,0.00,,,0.00,meteohub,2013-03-30 13:15:00,
2013-03-30 09:20:00,70.3,52.3,30.27,NE,54,0.0,3.0,53,0.00,,,0.00,meteohub,2013-03-30 13:20:00,
2013-03-30 09:25:00,70.5,52.5,30.27,ESE,109,1.0,7.0,53,0.00,,,0.00,meteohub,2013-03-30 13:25:00,
2013-03-30 09:30:00,70.5,52.0,30.27,East,81,0.0,7.0,52,0.00,,,0.00,meteohub,2013-03-30 13:30:00,
2013-03-30 09:35:00,70.9,52.3,30.27,South,190,2.0,7.0,52,0.00,,,0.00,meteohub,2013-03-30 13:35:00,
2013-03-30 09:40:00,70.9,52.3,30.27,SE,129,3.0,6.0,52,0.00,,,0.00,meteohub,2013-03-30 13:40:00,
2013-03-30 09:45:00,71.1,52.5,30.27,ESE,104,2.0,6.0,52,0.00,,,0.00,meteohub,2013-03-30 13:45:00,
2013-03-30 09:50:00,71.4,52.3,30.27,East,90,1.0,6.0,51,0.00,,,0.00,meteohub,2013-03-30 13:50:00,
2013-03-30 09:55:00,71.6,52.0,30.26,SSE,148,3.0,6.0,50,0.00,,,0.00,meteohub,2013-03-30 13:55:00,
2013-03-30 10:00:00,71.4,52.9,30.26,ESE,115,0.0,6.0,52,0.00,,,0.00,meteohub,2013-03-30 14:00:00,
2013-03-30 10:05:00,71.8,52.2,30.26,East,85,0.0,7.0,50,0.00,,,0.00,meteohub,2013-03-30 14:05:00,
2013-03-30 10:10:00,72.0,51.8,30.27,NE,46,1.0,7.0,49,0.00,,,0.00,meteohub,2013-03-30 14:10:00,
2013-03-30 10:15:00,71.8,52.2,30.27,SE,135,1.0,7.0,50,0.00,,,0.00,meteohub,2013-03-30 14:15:00,
2013-03-30 10:20:00,71.6,52.0,30.26,ESE,119,1.0,6.0,50,0.00,,,0.00,meteohub,2013-03-30 14:20:00,
2013-03-30 10:25:00,71.4,51.8,30.27,ESE,103,2.0,6.0,50,0.00,,,0.00,meteohub,2013-03-30 14:25:00,
2013-03-30 10:30:00,71.1,51.4,30.27,ESE,104,0.0,6.0,50,0.00,,,0.00,meteohub,2013-03-30 14:30:00,
2013-03-30 10:36:00,71.2,51.6,30.27,SSE,147,0.0,7.0,50,0.00,,,0.00,meteohub,2013-03-30 14:36:00,
2013-03-30 10:41:00,71.6,50.9,30.27,SE,135,0.0,7.0,48,0.00,,,0.00,meteohub,2013-03-30 14:41:00,
2013-03-30 10:46:00,72.0,51.3,30.27,SE,138,1.0,7.0,48,0.00,,,0.00,meteohub,2013-03-30 14:46:00,
2013-03-30 10:51:00,72.7,51.8,30.27,South,185,1.0,6.0,48,0.00,,,0.00,meteohub,2013-03-30 14:51:00,
2013-03-30 10:56:00,73.0,50.4,30.27,SSE,167,3.0,6.0,45,0.00,,,0.00,meteohub,2013-03-30 14:56:00,
2013-03-30 11:01:00,73.2,50.5,30.27,ESE,115,1.0,5.0,45,0.00,,,0.00,meteohub,2013-03-30 15:01:00,
2013-03-30 11:06:00,73.2,51.8,30.27,SE,127,3.0,6.0,47,0.00,,,0.00,meteohub,2013-03-30 15:06:00,
2013-03-30 11:11:00,72.9,51.4,30.27,East,88,5.0,6.0,47,0.00,,,0.00,meteohub,2013-03-30 15:11:00,
2013-03-30 11:16:00,73.0,51.1,30.27,SSE,154,3.0,7.0,46,0.00,,,0.00,meteohub,2013-03-30 15:16:00,
2013-03-30 11:21:00,72.9,51.4,30.27,SE,145,5.0,7.0,47,0.00,,,0.00,meteohub,2013-03-30 15:21:00,
2013-03-30 11:26:00,72.1,50.7,30.27,SSE,157,3.0,8.0,47,0.00,,,0.00,meteohub,2013-03-30 15:26:00,
2013-03-30 11:31:00,72.1,52.0,30.27,East,96,0.0,8.0,49,0.00,,,0.00,meteohub,2013-03-30 15:31:00,
2013-03-30 11:36:00,73.0,51.6,30.27,ESE,105,2.0,8.0,47,0.00,,,0.00,meteohub,2013-03-30 15:36:00,
2013-03-30 11:42:00,73.2,50.5,30.27,SE,129,0.0,7.0,45,0.00,,,0.00,meteohub,2013-03-30 15:42:00,
2013-03-30 11:47:00,73.6,51.4,30.27,NE,55,1.0,6.0,46,0.00,,,0.00,meteohub,2013-03-30 15:47:00,
2013-03-30 11:52:00,73.6,51.4,30.27,SSW,198,2.0,7.0,46,0.00,,,0.00,meteohub,2013-03-30 15:52:00,
2013-03-30 11:57:00,73.4,50.7,30.27,ESE,120,0.0,7.0,45,0.00,,,0.00,meteohub,2013-03-30 15:57:00,
2013-03-30 12:02:00,73.2,51.3,30.27,ENE,78,3.0,7.0,46,0.00,,,0.00,meteohub,2013-03-30 16:02:00,
2013-03-30 12:07:00,73.2,50.5,30.27,ESE,103,1.0,6.0,45,0.00,,,0.00,meteohub,2013-03-30 16:07:00,
2013-03-30 12:12:00,73.2,50.5,30.27,South,188,2.0,7.0,45,0.00,,,0.00,meteohub,2013-03-30 16:12:00,
2013-03-30 12:17:00,73.4,51.4,30.27,SE,142,2.0,8.0,46,0.00,,,0.00,meteohub,2013-03-30 16:17:00,
2013-03-30 12:22:00,73.6,51.4,30.27,ESE,121,0.0,8.0,46,0.00,,,0.00,meteohub,2013-03-30 16:22:00,
2013-03-30 12:27:00,74.5,50.5,30.27,East,95,1.0,8.0,43,0.00,,,0.00,meteohub,2013-03-30 16:27:00,
2013-03-30 12:32:00,74.3,49.6,30.26,SE,145,0.0,8.0,42,0.00,,,0.00,meteohub,2013-03-30 16:32:00,
2013-03-30 12:37:00,74.1,50.9,30.26,South,191,2.0,8.0,44,0.00,,,0.00,meteohub,2013-03-30 16:37:00,
2013-03-30 12:42:00,74.3,50.9,30.26,SSE,153,1.0,8.0,44,0.00,,,0.00,meteohub,2013-03-30 16:42:00,
2013-03-30 12:47:00,73.9,50.7,30.26,East,84,0.0,7.0,44,0.00,,,0.00,meteohub,2013-03-30 16:47:00,
2013-03-30 12:52:00,74.1,51.4,30.25,ENE,63,0.0,7.0,45,0.00,,,0.00,meteohub,2013-03-30 16:52:00,
2013-03-30 12:57:00,73.9,51.3,30.25,SSW,207,3.0,7.0,45,0.00,,,0.00,meteohub,2013-03-30 16:57:00,
2013-03-30 13:02:00,73.8,51.6,30.25,SE,143,2.0,7.0,46,0.00,,,0.00,meteohub,2013-03-30 17:02:00,
2013-03-30 13:07:00,74.1,51.4,30.25,SSE,156,1.0,7.0,45,0.00,,,0.00,meteohub,2013-03-30 17:07:00,
2013-03-30 13:12:00,74.3,51.6,30.25,East,84,0.0,7.0,45,0.00,,,0.00,meteohub,2013-03-30 17:12:00,
2013-03-30 13:17:00,74.5,52.3,30.24,ESE,123,0.0,7.0,46,0.00,,,0.00,meteohub,2013-03-30 17:17:00,
2013-03-30 13:22:00,74.5,51.8,30.24,ESE,111,0.0,7.0,45,0.00,,,0.00,meteohub,2013-03-30 17:22:00,
2013-03-30 13:27:00,74.5,52.3,30.24,SSE,159,0.0,7.0,46,0.00,,,0.00,meteohub,2013-03-30 17:27:00,
2013-03-30 13:32:00,74.7,50.7,30.24,SSE,156,0.0,7.0,43,0.00,,,0.00,meteohub,2013-03-30 17:32:00,
2013-03-30 13:37:00,74.8,52.2,30.24,SE,134,1.0,7.0,45,0.00,,,0.00,meteohub,2013-03-30 17:37:00,
2013-03-30 13:42:00,75.0,52.9,30.23,NNE,12,3.0,7.0,46,0.00,,,0.00,meteohub,2013-03-30 17:42:00,
2013-03-30 13:47:00,74.8,53.2,30.23,ENE,69,1.0,7.0,47,0.00,,,0.00,meteohub,2013-03-30 17:47:00,
2013-03-30 13:52:00,75.0,53.4,30.23,SSE,155,1.0,7.0,47,0.00,,,0.00,meteohub,2013-03-30 17:52:00,
2013-03-30 13:57:00,75.0,54.0,30.23,NE,46,1.0,7.0,48,0.00,,,0.00,meteohub,2013-03-30 17:57:00,
2013-03-30 14:02:00,75.6,54.5,30.23,ENE,65,2.0,7.0,48,0.00,,,0.00,meteohub,2013-03-30 18:02:00,
2013-03-30 14:06:00,75.6,54.5,30.22,ENE,75,0.0,7.0,48,0.00,,,0.00,meteohub,2013-03-30 18:06:00,
2013-03-30 14:12:00,75.6,54.5,30.22,SE,140,7.0,7.0,48,0.00,,,0.00,meteohub,2013-03-30 18:12:00,
2013-03-30 14:17:00,75.2,53.6,30.22,East,84,5.0,7.0,47,0.00,,,0.00,meteohub,2013-03-30 18:17:00,
2013-03-30 14:22:00,75.4,54.3,30.21,East,94,0.0,8.0,48,0.00,,,0.00,meteohub,2013-03-30 18:22:00,
2013-03-30 14:27:00,75.6,54.0,30.21,SE,130,4.0,8.0,47,0.00,,,0.00,meteohub,2013-03-30 18:27:00,
2013-03-30 14:32:00,75.4,53.2,30.21,ESE,119,1.0,8.0,46,0.00,,,0.00,meteohub,2013-03-30 18:32:00,
2013-03-30 14:37:00,75.4,52.5,30.21,East,84,6.0,8.0,45,0.00,,,0.00,meteohub,2013-03-30 18:37:00,
2013-03-30 14:42:00,75.6,53.2,30.20,NE,53,0.0,8.0,46,0.00,,,0.00,meteohub,2013-03-30 18:42:00,
2013-03-30 14:47:00,75.4,53.2,30.20,SE,124,3.0,7.0,46,0.00,,,0.00,meteohub,2013-03-30 18:47:00,
2013-03-30 14:52:00,75.4,52.5,30.20,SSE,162,5.0,7.0,45,0.00,,,0.00,meteohub,2013-03-30 18:52:00,
2013-03-30 14:57:00,75.0,52.2,30.20,South,175,3.0,7.0,45,0.00,,,0.00,meteohub,2013-03-30 18:57:00,
2013-03-30 15:02:00,75.6,51.4,30.19,East,101,2.0,7.0,43,0.00,,,0.00,meteohub,2013-03-30 19:02:00,
2013-03-30 15:07:00,75.4,52.0,30.19,South,172,6.0,7.0,44,0.00,,,0.00,meteohub,2013-03-30 19:07:00,
2013-03-30 15:12:00,75.4,52.5,30.19,ESE,113,0.0,9.0,45,0.00,,,0.00,meteohub,2013-03-30 19:12:00,
2013-03-30 15:17:00,75.6,52.7,30.19,NE,45,0.0,9.0,45,0.00,,,0.00,meteohub,2013-03-30 19:17:00,
2013-03-30 15:22:00,75.0,51.6,30.19,SE,146,0.0,9.0,44,0.00,,,0.00,meteohub,2013-03-30 19:22:00,
2013-03-30 15:27:00,75.0,51.1,30.19,East,96,2.0,8.0,43,0.00,,,0.00,meteohub,2013-03-30 19:27:00,
2013-03-30 15:32:00,75.0,51.1,30.18,ENE,67,0.0,8.0,43,0.00,,,0.00,meteohub,2013-03-30 19:32:00,
2013-03-30 15:37:00,74.8,50.2,30.18,SSE,155,2.0,6.0,42,0.00,,,0.00,meteohub,2013-03-30 19:37:00,
2013-03-30 15:42:00,75.4,50.0,30.18,NNE,26,1.0,7.0,41,0.00,,,0.00,meteohub,2013-03-30 19:42:00,
2013-03-30 15:47:00,75.7,49.6,30.18,SE,140,0.0,7.0,40,0.00,,,0.00,meteohub,2013-03-30 19:47:00,
2013-03-30 15:52:00,75.6,49.5,30.18,ESE,113,0.0,7.0,40,0.00,,,0.00,meteohub,2013-03-30 19:52:00,
2013-03-30 15:57:00,75.2,49.3,30.18,North,350,3.0,7.0,40,0.00,,,0.00,meteohub,2013-03-30 19:57:00,
2013-03-30 16:02:00,74.8,50.2,30.18,East,80,2.0,7.0,42,0.00,,,0.00,meteohub,2013-03-30 20:02:00,
2013-03-30 16:07:00,74.8,49.6,30.18,SSE,166,1.0,7.0,41,0.00,,,0.00,meteohub,2013-03-30 20:07:00,
2013-03-30 16:12:00,74.8,50.2,30.17,NNE,13,3.0,7.0,42,0.00,,,0.00,meteohub,2013-03-30 20:12:00,
2013-03-30 16:17:00,74.7,50.7,30.18,ESE,105,2.0,6.0,43,0.00,,,0.00,meteohub,2013-03-30 20:17:00,
2013-03-30 16:22:00,74.5,51.1,30.17,East,91,0.0,6.0,44,0.00,,,0.00,meteohub,2013-03-30 20:22:00,
2013-03-30 16:28:00,74.8,51.4,30.17,SE,142,3.0,6.0,44,0.00,,,0.00,meteohub,2013-03-30 20:28:00,
2013-03-30 16:33:00,74.7,51.3,30.18,East,101,1.0,7.0,44,0.00,,,0.00,meteohub,2013-03-30 20:33:00,
2013-03-30 16:38:00,74.7,50.0,30.18,South,188,2.0,7.0,42,0.00,,,0.00,meteohub,2013-03-30 20:38:00,
2013-03-30 16:43:00,74.7,51.3,30.17,NE,42,2.0,7.0,44,0.00,,,0.00,meteohub,2013-03-30 20:43:00,
2013-03-30 16:48:00,74.5,51.8,30.17,South,178,4.0,5.0,45,0.00,,,0.00,meteohub,2013-03-30 20:48:00,
2013-03-30 16:53:00,74.1,52.0,30.17,NE,34,0.0,5.0,46,0.00,,,0.00,meteohub,2013-03-30 20:53:00,
2013-03-30 16:58:00,74.5,51.8,30.17,SE,140,2.0,6.0,45,0.00,,,0.00,meteohub,2013-03-30 20:58:00,
2013-03-30 17:03:00,74.5,51.1,30.17,ESE,112,2.0,6.0,44,0.00,,,0.00,meteohub,2013-03-30 21:03:00,
2013-03-30 17:08:00,74.5,51.8,30.17,SE,142,2.0,6.0,45,0.00,,,0.00,meteohub,2013-03-30 21:08:00,
2013-03-30 17:13:00,74.3,52.7,30.17,SE,140,4.0,5.0,47,0.00,,,0.00,meteohub,2013-03-30 21:13:00,
2013-03-30 17:18:00,74.3,52.7,30.17,SE,134,0.0,5.0,47,0.00,,,0.00,meteohub,2013-03-30 21:18:00,
2013-03-30 17:23:00,74.1,52.0,30.17,ENE,65,0.0,6.0,46,0.00,,,0.00,meteohub,2013-03-30 21:23:00,
2013-03-30 17:28:00,73.9,52.5,30.17,SSE,154,3.0,6.0,47,0.00,,,0.00,meteohub,2013-03-30 21:28:00,
2013-03-30 17:33:00,73.6,52.2,30.17,ESE,109,1.0,6.0,47,0.00,,,0.00,meteohub,2013-03-30 21:33:00,
2013-03-30 17:38:00,73.2,51.8,30.17,SSE,150,1.0,6.0,47,0.00,,,0.00,meteohub,2013-03-30 21:38:00,
2013-03-30 17:43:00,73.2,52.3,30.17,ENE,57,1.0,6.0,48,0.00,,,0.00,meteohub,2013-03-30 21:43:00,
2013-03-30 17:48:00,73.0,52.2,30.17,ESE,115,0.0,6.0,48,0.00,,,0.00,meteohub,2013-03-30 21:48:00,
2013-03-30 17:53:00,73.0,51.6,30.17,NNE,33,0.0,6.0,47,0.00,,,0.00,meteohub,2013-03-30 21:53:00,
2013-03-30 17:58:00,72.9,52.5,30.17,East,101,0.0,6.0,49,0.00,,,0.00,meteohub,2013-03-30 21:58:00,
2013-03-30 18:03:00,72.3,51.4,30.17,SE,126,0.0,5.0,48,0.00,,,0.00,meteohub,2013-03-30 22:03:00,
2013-03-30 18:08:00,72.3,52.2,30.17,SE,125,5.0,7.0,49,0.00,,,0.00,meteohub,2013-03-30 22:08:00,
2013-03-30 18:13:00,72.0,52.9,30.17,SE,136,3.0,7.0,51,0.00,,,0.00,meteohub,2013-03-30 22:13:00,
2013-03-30 18:18:00,71.8,52.7,30.17,SE,124,0.0,7.0,51,0.00,,,0.00,meteohub,2013-03-30 22:18:00,
2013-03-30 18:23:00,71.8,52.7,30.17,ESE,119,3.0,5.0,51,0.00,,,0.00,meteohub,2013-03-30 22:23:00,
2013-03-30 18:28:00,71.6,53.1,30.17,SSE,158,3.0,5.0,52,0.00,,,0.00,meteohub,2013-03-30 22:28:00,
2013-03-30 18:33:00,71.4,52.9,30.17,NE,35,0.0,5.0,52,0.00,,,0.00,meteohub,2013-03-30 22:33:00,
2013-03-30 18:38:00,71.4,53.4,30.17,SSE,149,0.0,5.0,53,0.00,,,0.00,meteohub,2013-03-30 22:38:00,
2013-03-30 18:43:00,71.2,53.2,30.17,SE,143,2.0,5.0,53,0.00,,,0.00,meteohub,2013-03-30 22:43:00,
2013-03-30 18:48:00,71.1,53.1,30.17,SE,132,0.0,4.0,53,0.00,,,0.00,meteohub,2013-03-30 22:48:00,
2013-03-30 18:53:00,70.9,52.9,30.17,SE,138,0.0,4.0,53,0.00,,,0.00,meteohub,2013-03-30 22:53:00,
2013-03-30 18:58:00,70.9,53.4,30.17,SE,144,0.0,4.0,54,0.00,,,0.00,meteohub,2013-03-30 22:58:00,
2013-03-30 19:03:00,70.5,52.5,30.17,SSE,162,0.0,3.0,53,0.00,,,0.00,meteohub,2013-03-30 23:03:00,
2013-03-30 19:08:00,70.3,52.9,30.17,East,93,0.0,3.0,54,0.00,,,0.00,meteohub,2013-03-30 23:08:00,
2013-03-30 19:13:00,70.2,53.2,30.17,ENE,71,0.0,3.0,55,0.00,,,0.00,meteohub,2013-03-30 23:13:00,
2013-03-30 19:18:00,69.8,52.9,30.17,SSW,198,1.0,3.0,55,0.00,,,0.00,meteohub,2013-03-30 23:18:00,
2013-03-30 19:23:00,69.4,53.6,30.17,SE,125,1.0,3.0,57,0.00,,,0.00,meteohub,2013-03-30 23:23:00,
2013-03-30 19:28:00,69.3,52.9,30.17,East,86,1.0,6.0,56,0.00,,,0.00,meteohub,2013-03-30 23:28:00,
2013-03-30 19:34:00,68.7,52.9,30.17,ENE,77,0.0,6.0,57,0.00,,,0.00,meteohub,2013-03-30 23:34:00,
2013-03-30 19:39:00,68.5,53.2,30.17,East,96,0.0,6.0,58,0.00,,,0.00,meteohub,2013-03-30 23:39:00,
2013-03-30 19:44:00,68.4,53.4,30.17,SE,131,0.0,2.0,59,0.00,,,0.00,meteohub,2013-03-30 23:44:00,
2013-03-30 19:48:00,68.0,53.1,30.18,ENE,76,0.0,2.0,59,0.00,,,0.00,meteohub,2013-03-30 23:48:00,
2013-03-30 19:54:00,67.8,52.9,30.18,SE,139,0.0,1.0,59,0.00,,,0.00,meteohub,2013-03-30 23:54:00,
2013-03-30 19:59:00,67.6,52.9,30.18,SE,132,0.0,3.0,59,0.00,,,0.00,meteohub,2013-03-30 23:59:00,
2013-03-30 20:04:00,67.5,53.1,30.18,SE,132,0.0,3.0,60,0.00,,,0.00,meteohub,2013-03-31 00:04:00,
2013-03-30 20:09:00,67.3,52.9,30.18,East,87,0.0,4.0,60,0.00,,,0.00,meteohub,2013-03-31 00:09:00,
2013-03-30 20:14:00,67.3,53.4,30.18,SE,143,0.0,4.0,61,0.00,,,0.00,meteohub,2013-03-31 00:14:00,
2013-03-30 20:19:00,67.1,53.2,30.18,SE,143,0.0,4.0,61,0.00,,,0.00,meteohub,2013-03-31 00:19:00,
2013-03-30 20:24:00,66.9,53.1,30.18,ESE,109,0.0,2.0,61,0.00,,,0.00,meteohub,2013-03-31 00:24:00,
2013-03-30 20:29:00,67.1,53.6,30.18,SSE,147,0.0,6.0,62,0.00,,,0.00,meteohub,2013-03-31 00:29:00,
2013-03-30 20:34:00,67.1,53.6,30.18,SSE,150,0.0,6.0,62,0.00,,,0.00,meteohub,2013-03-31 00:34:00,
2013-03-30 20:39:00,67.1,53.6,30.18,SE,139,0.0,6.0,62,0.00,,,0.00,meteohub,2013-03-31 00:39:00,
2013-03-30 20:44:00,67.1,53.6,30.18,SE,139,0.0,5.0,62,0.00,,,0.00,meteohub,2013-03-31 00:44:00,
2013-03-30 20:49:00,66.9,54.0,30.18,ESE,108,0.0,5.0,63,0.00,,,0.00,meteohub,2013-03-31 00:49:00,
2013-03-30 20:54:00,66.7,53.8,30.18,ESE,122,2.0,5.0,63,0.00,,,0.00,meteohub,2013-03-31 00:54:00,
2013-03-30 20:59:00,66.9,54.0,30.19,SSE,161,0.0,2.0,63,0.00,,,0.00,meteohub,2013-03-31 00:59:00,
2013-03-30 21:04:00,66.9,53.4,30.19,SSE,149,0.0,3.0,62,0.00,,,0.00,meteohub,2013-03-31 01:04:00,
2013-03-30 21:09:00,66.9,53.4,30.19,ESE,119,0.0,3.0,62,0.00,,,0.00,meteohub,2013-03-31 01:09:00,
2013-03-30 21:14:00,66.9,54.0,30.19,SE,141,0.0,3.0,63,0.00,,,0.00,meteohub,2013-03-31 01:14:00,
2013-03-30 21:19:00,66.7,53.8,30.19,ESE,117,0.0,2.0,63,0.00,,,0.00,meteohub,2013-03-31 01:19:00,
2013-03-30 21:24:00,66.7,53.8,30.19,ESE,103,1.0,2.0,63,0.00,,,0.00,meteohub,2013-03-31 01:24:00,
2013-03-30 21:29:00,66.7,53.8,30.19,SE,146,0.0,5.0,63,0.00,,,0.00,meteohub,2013-03-31 01:29:00,
2013-03-30 21:34:00,66.9,54.0,30.19,South,174,0.0,5.0,63,0.00,,,0.00,meteohub,2013-03-31 01:34:00,
2013-03-30 21:39:00,66.9,54.0,30.19,West,274,0.0,5.0,63,0.00,,,0.00,meteohub,2013-03-31 01:39:00,
2013-03-30 21:44:00,66.9,54.3,30.19,SE,131,0.0,3.0,64,0.00,,,0.00,meteohub,2013-03-31 01:44:00,
2013-03-30 21:49:00,66.7,54.1,30.19,ESE,123,0.0,3.0,64,0.00,,,0.00,meteohub,2013-03-31 01:49:00,
2013-03-30 21:54:00,66.7,53.8,30.19,ENE,70,0.0,2.0,63,0.00,,,0.00,meteohub,2013-03-31 01:54:00,
2013-03-30 21:59:00,66.7,53.8,30.20,SE,143,0.0,2.0,63,0.00,,,0.00,meteohub,2013-03-31 01:59:00,
2013-03-30 22:04:00,66.7,54.1,30.20,East,101,0.0,2.0,64,0.00,,,0.00,meteohub,2013-03-31 02:04:00,
2013-03-30 22:09:00,66.7,54.1,30.20,SSE,157,0.0,3.0,64,0.00,,,0.00,meteohub,2013-03-31 02:09:00,
2013-03-30 22:14:00,66.7,54.7,30.20,East,88,0.0,3.0,65,0.00,,,0.00,meteohub,2013-03-31 02:14:00,
2013-03-30 22:19:00,66.7,54.7,30.20,SE,138,0.0,3.0,65,0.00,,,0.00,meteohub,2013-03-31 02:19:00,
2013-03-30 22:24:00,66.7,53.8,30.20,SE,126,2.0,2.0,63,0.00,,,0.00,meteohub,2013-03-31 02:24:00,
2013-03-30 22:29:00,66.9,54.3,30.20,SE,126,0.0,5.0,64,0.00,,,0.00,meteohub,2013-03-31 02:29:00,
2013-03-30 22:34:00,66.9,54.3,30.20,ESE,111,1.0,5.0,64,0.00,,,0.00,meteohub,2013-03-31 02:34:00,
2013-03-30 22:39:00,67.1,54.5,30.21,SE,128,0.0,5.0,64,0.00,,,0.00,meteohub,2013-03-31 02:39:00,
2013-03-30 22:44:00,67.3,54.7,30.21,SE,143,1.0,5.0,64,0.00,,,0.00,meteohub,2013-03-31 02:44:00,
2013-03-30 22:49:00,67.3,54.7,30.21,SE,126,0.0,5.0,64,0.00,,,0.00,meteohub,2013-03-31 02:49:00,
2013-03-30 22:54:00,67.3,54.3,30.21,East,87,0.0,5.0,63,0.00,,,0.00,meteohub,2013-03-31 02:54:00,
2013-03-30 22:59:00,67.3,54.3,30.21,NE,44,0.0,5.0,63,0.00,,,0.00,meteohub,2013-03-31 02:59:00,
2013-03-30 23:05:00,67.3,54.7,30.21,ENE,74,0.0,5.0,64,0.00,,,0.00,meteohub,2013-03-31 03:05:00,
2013-03-30 23:10:00,67.3,55.0,30.21,SE,144,3.0,5.0,65,0.00,,,0.00,meteohub,2013-03-31 03:10:00,
2013-03-30 23:15:00,67.5,54.9,30.20,SE,126,1.0,5.0,64,0.00,,,0.00,meteohub,2013-03-31 03:15:00,
2013-03-30 23:20:00,67.5,55.2,30.20,NE,53,0.0,5.0,65,0.00,,,0.00,meteohub,2013-03-31 03:20:00,
2013-03-30 23:25:00,67.5,54.9,30.20,SE,138,2.0,5.0,64,0.00,,,0.00,meteohub,2013-03-31 03:25:00,
2013-03-30 23:30:00,67.6,55.0,30.20,NE,35,0.0,5.0,64,0.00,,,0.00,meteohub,2013-03-31 03:30:00,
2013-03-30 23:35:00,67.6,54.7,30.20,ESE,123,0.0,5.0,63,0.00,,,0.00,meteohub,2013-03-31 03:35:00,
2013-03-30 23:40:00,67.5,54.5,30.21,SE,140,1.0,5.0,63,0.00,,,0.00,meteohub,2013-03-31 03:40:00,
2013-03-30 23:45:00,67.5,54.9,30.20,SE,132,2.0,5.0,64,0.00,,,0.00,meteohub,2013-03-31 03:45:00,
2013-03-30 23:50:00,67.5,54.9,30.20,SSE,150,0.0,6.0,64,0.00,,,0.00,meteohub,2013-03-31 03:50:00,
2013-03-30 23:55:00,67.3,55.0,30.20,SE,140,0.0,6.0,65,0.00,,,0.00,meteohub,2013-03-31 03:55:00,